Tracking 17925 objects as of 19-January-2017
HD Live streaming from Space Station
objects crossing your sky now

INSAT 1C

Track INSAT 1C now!
INSAT 1C is classified as:


NORAD ID: 19330
Int'l Code: 1988-063A
Perigee: 35,776.2 km
Apogee: 35,789.9 km
Inclination: 15.0 °
Period: 1,435.5 minutes
Semi major axis: 42154 km
RCS: 1.9952 m2 (large)
Launch date: July 21, 1988
Source: India (IND)
Launch site: FRENCH GUIANA (FRGUI)
Your satellite tracking list
Your tracking list is empty





NASA's NSSDC Master Catalog

Two Line Element Set (TLE):
1 19330U 88063A   17017.96298312 -.00000215  00000-0  00000+0 0  9995
2 19330  14.9513 357.7674 0001625 357.6180 193.4486  1.00310338 85742
Source of the keplerian elements: AFSPC